Time,TemperatureF,DewpointF,PressureIn,WindDirection,WindDirectionDegrees,WindSpeedMPH,WindSpeedGustMPH,Humidity,HourlyPrecipIn,Conditions,Clouds,dailyrainin,SoftwareType,DateUTC
2013-05-21 00:03:00,60.0,59.0,30.00,WNW,285,0.0,0.0,96,0.00,,,0.25,,2013-05-21 04:03:00,
2013-05-21 00:13:00,60.0,59.0,30.00,WNW,285,0.0,0.0,96,0.00,,,0.25,,2013-05-21 04:13:00,
2013-05-21 00:23:00,60.0,59.0,30.01,WNW,285,0.0,0.0,96,0.00,,,0.07,,2013-05-21 04:23:00,
2013-05-21 00:33:00,60.0,59.0,30.01,WNW,285,0.0,0.0,96,0.00,,,0.07,,2013-05-21 04:33:00,
2013-05-21 00:42:00,60.0,59.0,30.01,WNW,285,0.0,0.0,96,0.00,,,0.07,,2013-05-21 04:42:00,
2013-05-21 00:53:00,60.0,59.0,30.00,WNW,285,0.0,0.0,97,0.00,,,0.07,,2013-05-21 04:53:00,
2013-05-21 01:02:00,60.0,59.0,30.00,WNW,285,0.0,0.0,96,0.00,,,0.07,,2013-05-21 05:02:00,
2013-05-21 01:12:00,60.0,59.0,30.00,WNW,285,0.0,0.0,96,0.00,,,0.07,,2013-05-21 05:12:00,
2013-05-21 01:22:00,59.0,58.0,29.99,WNW,285,0.0,0.0,97,0.00,,,0.04,,2013-05-21 05:22:00,
2013-05-21 01:32:00,59.0,58.0,29.99,WNW,285,0.0,0.0,97,0.00,,,0.04,,2013-05-21 05:32:00,
2013-05-21 01:42:00,59.0,58.0,29.99,WNW,285,0.0,0.0,97,0.00,,,0.04,,2013-05-21 05:42:00,
2013-05-21 01:52:00,59.0,58.0,29.99,WNW,285,0.0,0.0,97,0.00,,,0.04,,2013-05-21 05:52:00,
2013-05-21 02:02:00,58.0,57.0,29.99,WNW,285,0.0,0.0,97,0.00,,,0.04,,2013-05-21 06:02:00,
2013-05-21 02:12:00,58.0,57.0,29.99,WNW,285,0.0,0.0,97,0.00,,,0.04,,2013-05-21 06:12:00,
2013-05-21 02:21:00,58.0,57.0,29.98,WNW,285,0.0,0.0,97,0.00,,,0.02,,2013-05-21 06:21:00,
2013-05-21 02:32:00,58.0,57.0,29.98,WNW,285,0.0,0.0,97,0.00,,,0.02,,2013-05-21 06:32:00,
2013-05-21 02:42:00,58.0,57.0,29.98,WNW,285,0.0,0.0,97,0.00,,,0.02,,2013-05-21 06:42:00,
2013-05-21 02:52:00,58.0,57.0,29.97,WNW,285,0.0,0.0,98,0.00,,,0.02,,2013-05-21 06:52:00,
2013-05-21 03:01:00,58.0,57.0,29.97,WNW,285,0.0,0.0,98,0.00,,,0.02,,2013-05-21 07:01:00,
2013-05-21 03:11:00,58.0,57.0,29.97,WNW,285,0.0,0.0,98,0.00,,,0.02,,2013-05-21 07:11:00,
2013-05-21 03:22:00,58.0,57.0,29.96,WNW,285,0.0,0.0,98,0.00,,,0.01,,2013-05-21 07:22:00,
2013-05-21 03:31:00,58.0,57.0,29.96,WNW,285,0.0,0.0,98,0.00,,,0.01,,2013-05-21 07:31:00,
2013-05-21 03:41:00,58.0,57.0,29.96,WNW,285,0.0,0.0,98,0.00,,,0.01,,2013-05-21 07:41:00,
2013-05-21 03:52:00,58.0,57.0,29.96,WNW,285,0.0,0.0,98,0.00,,,0.01,,2013-05-21 07:52:00,
2013-05-21 04:02:00,57.0,56.0,29.96,WNW,285,0.0,0.0,98,0.00,,,0.01,,2013-05-21 08:02:00,
2013-05-21 04:11:00,57.0,56.0,29.96,WNW,285,0.0,0.0,98,0.00,,,0.01,,2013-05-21 08:11:00,
2013-05-21 04:21:00,57.0,56.0,29.96,WNW,285,0.0,0.0,98,0.00,,,0.01,,2013-05-21 08:21:00,
2013-05-21 04:31:00,57.0,56.0,29.96,WNW,285,0.0,0.0,98,0.00,,,0.01,,2013-05-21 08:31:00,
2013-05-21 04:42:00,57.0,56.0,29.97,WNW,285,0.0,0.0,98,0.00,,,0.01,,2013-05-21 08:42:00,
2013-05-21 04:52:00,57.0,56.0,29.97,WNW,285,0.0,0.0,98,0.00,,,0.01,,2013-05-21 08:52:00,
2013-05-21 05:01:00,56.0,55.0,29.97,WNW,285,0.0,0.0,98,0.00,,,0.01,,2013-05-21 09:01:00,
2013-05-21 05:11:00,56.0,55.0,29.97,WNW,285,0.0,0.0,98,0.00,,,0.01,,2013-05-21 09:11:00,
2013-05-21 05:21:00,56.0,55.0,29.97,WNW,285,0.0,0.0,98,0.00,,,0.00,,2013-05-21 09:21:00,
2013-05-21 05:33:00,56.0,55.0,29.97,WNW,285,0.0,0.0,98,0.00,,,0.00,,2013-05-21 09:33:00,
2013-05-21 05:42:00,56.0,55.0,29.97,WNW,285,0.0,0.0,98,0.00,,,0.00,,2013-05-21 09:42:00,
2013-05-21 05:53:00,57.0,57.0,29.96,WNW,285,0.0,0.0,99,0.00,,,0.00,,2013-05-21 09:53:00,
2013-05-21 06:02:00,57.0,57.0,29.96,WNW,285,0.0,0.0,99,0.00,,,0.00,,2013-05-21 10:02:00,
2013-05-21 06:12:00,57.0,57.0,29.96,WNW,285,0.0,0.0,99,0.00,,,0.00,,2013-05-21 10:12:00,
2013-05-21 06:22:00,58.0,58.0,29.97,WNW,285,0.0,0.0,99,0.00,,,0.00,,2013-05-21 10:22:00,
2013-05-21 06:32:00,58.0,58.0,29.98,WNW,285,0.0,0.0,99,0.00,,,0.00,,2013-05-21 10:32:00,
2013-05-21 06:42:00,58.0,58.0,29.98,WNW,285,0.0,0.0,99,0.00,,,0.00,,2013-05-21 10:42:00,
2013-05-21 06:52:00,59.0,59.0,29.99,West,280,0.0,0.0,99,0.00,,,0.00,,2013-05-21 10:52:00,
2013-05-21 07:02:00,59.0,59.0,29.98,NNW,345,0.0,0.0,99,0.00,,,0.00,,2013-05-21 11:02:00,
2013-05-21 07:12:00,59.0,59.0,29.98,NNW,345,0.0,0.0,99,0.00,,,0.00,,2013-05-21 11:12:00,
2013-05-21 07:22:00,59.0,58.0,29.97,SE,126,0.0,0.0,98,0.00,,,0.00,,2013-05-21 11:22:00,
2013-05-21 07:32:00,59.0,58.0,29.97,ESE,115,0.0,0.0,98,0.00,,,0.00,,2013-05-21 11:32:00,
2013-05-21 07:42:00,59.0,58.0,29.97,ESE,115,0.0,0.0,98,0.00,,,0.00,,2013-05-21 11:42:00,
2013-05-21 07:52:00,59.0,59.0,29.95,West,277,0.0,0.0,99,0.00,,,0.00,,2013-05-21 11:52:00,
2013-05-21 08:01:00,59.0,58.0,29.96,East,101,0.0,0.0,98,0.00,,,0.00,,2013-05-21 12:01:00,
2013-05-21 08:11:00,59.0,58.0,29.96,East,101,0.0,0.0,98,0.00,,,0.00,,2013-05-21 12:11:00,
2013-05-21 08:21:00,59.0,59.0,29.98,WNW,287,0.0,0.0,99,0.00,,,0.00,,2013-05-21 12:21:00,
2013-05-21 08:32:00,59.0,58.0,29.98,West,281,0.0,0.0,98,0.00,,,0.00,,2013-05-21 12:32:00,
2013-05-21 08:42:00,59.0,58.0,29.98,West,281,0.0,0.0,98,0.00,,,0.00,,2013-05-21 12:42:00,
2013-05-21 08:52:00,60.0,59.0,29.98,East,94,0.0,0.0,98,0.00,,,0.00,,2013-05-21 12:52:00,
2013-05-21 09:01:00,60.0,59.0,29.98,East,96,0.0,0.0,98,0.00,,,0.00,,2013-05-21 13:01:00,
2013-05-21 09:12:00,60.0,59.0,29.98,East,96,0.0,0.0,98,0.00,,,0.00,,2013-05-21 13:12:00,
2013-05-21 09:22:00,60.0,59.0,29.98,West,260,0.0,0.0,98,0.00,,,0.00,,2013-05-21 13:22:00,
2013-05-21 09:32:00,61.0,60.0,29.98,West,260,0.0,0.0,98,0.00,,,0.00,,2013-05-21 13:32:00,
2013-05-21 09:42:00,61.0,60.0,29.98,West,260,0.0,0.0,98,0.00,,,0.00,,2013-05-21 13:42:00,
2013-05-21 09:52:00,61.0,60.0,29.97,West,265,0.0,0.0,97,0.00,,,0.00,,2013-05-21 13:52:00,
2013-05-21 10:01:00,61.0,60.0,29.97,West,265,0.0,0.0,97,0.00,,,0.00,,2013-05-21 14:01:00,
2013-05-21 10:11:00,61.0,60.0,29.97,West,265,0.0,0.0,97,0.00,,,0.00,,2013-05-21 14:11:00,
2013-05-21 10:21:00,62.0,61.0,29.96,ENE,68,0.0,0.0,97,0.00,,,0.00,,2013-05-21 14:21:00,
2013-05-21 10:32:00,62.0,61.0,29.95,ENE,71,0.0,0.0,96,0.00,,,0.00,,2013-05-21 14:32:00,
2013-05-21 10:42:00,62.0,61.0,29.95,ENE,71,0.0,0.0,96,0.00,,,0.00,,2013-05-21 14:42:00,
2013-05-21 10:52:00,64.0,62.0,29.94,ENE,57,0.0,0.0,94,0.00,,,0.00,,2013-05-21 14:52:00,
2013-05-21 11:01:00,64.0,62.0,29.95,NE,51,0.0,0.0,92,0.00,,,0.00,,2013-05-21 15:01:00,
2013-05-21 11:11:00,64.0,62.0,29.95,NE,51,0.0,0.0,92,0.00,,,0.00,,2013-05-21 15:11:00,
2013-05-21 11:21:00,63.0,61.0,29.96,East,89,0.0,0.0,94,0.05,,,0.05,,2013-05-21 15:21:00,
2013-05-21 11:33:00,64.0,63.0,29.96,East,90,0.0,0.0,95,0.05,,,0.05,,2013-05-21 15:33:00,
2013-05-21 11:42:00,67.0,65.0,29.95,East,90,0.0,0.0,94,0.05,,,0.05,,2013-05-21 15:42:00,
2013-05-21 11:53:00,67.0,65.0,29.95,East,90,0.0,0.0,94,0.05,,,0.05,,2013-05-21 15:53:00,
2013-05-21 12:03:00,68.0,65.0,29.93,East,89,0.0,0.0,89,0.05,,,0.05,,2013-05-21 16:03:00,
2013-05-21 12:13:00,68.0,65.0,29.93,East,89,0.0,0.0,89,0.05,,,0.05,,2013-05-21 16:13:00,
2013-05-21 12:23:00,69.0,65.0,29.93,East,80,0.0,0.0,88,0.00,,,0.05,,2013-05-21 16:23:00,
2013-05-21 12:32:00,69.0,66.0,29.93,East,82,0.0,0.0,89,0.00,,,0.05,,2013-05-21 16:32:00,
2013-05-21 12:42:00,70.0,64.0,29.93,NE,56,0.0,0.0,82,0.00,,,0.05,,2013-05-21 16:42:00,
2013-05-21 12:53:00,70.0,64.0,29.93,NE,56,0.0,0.0,82,0.00,,,0.05,,2013-05-21 16:53:00,
2013-05-21 13:02:00,70.0,66.0,29.93,ENE,58,0.0,0.0,86,0.00,,,0.05,,2013-05-21 17:02:00,
2013-05-21 13:12:00,70.0,66.0,29.93,ENE,58,0.0,0.0,86,0.00,,,0.05,,2013-05-21 17:12:00,
2013-05-21 13:23:00,72.0,66.0,29.93,ENE,58,0.0,0.0,82,0.00,,,0.05,,2013-05-21 17:23:00,
2013-05-21 13:33:00,74.0,68.0,29.92,ENE,61,0.0,0.0,81,0.00,,,0.05,,2013-05-21 17:33:00,
2013-05-21 13:43:00,75.0,67.0,29.93,West,264,0.0,0.0,75,0.00,,,0.05,,2013-05-21 17:43:00,
2013-05-21 13:52:00,75.0,67.0,29.93,West,264,0.0,0.0,75,0.00,,,0.05,,2013-05-21 17:52:00,
2013-05-21 14:02:00,73.0,66.0,29.93,NW,309,0.0,0.0,78,0.00,,,0.05,,2013-05-21 18:02:00,
2013-05-21 14:12:00,73.0,66.0,29.93,NW,309,0.0,0.0,78,0.00,,,0.05,,2013-05-21 18:12:00,
2013-05-21 14:22:00,69.0,62.0,29.94,ESE,111,0.0,0.0,79,0.00,,,0.05,,2013-05-21 18:22:00,
2013-05-21 14:32:00,68.0,61.0,29.94,SSW,209,0.0,0.0,79,0.00,,,0.05,,2013-05-21 18:32:00,
2013-05-21 14:42:00,69.0,62.0,29.94,NW,314,0.0,0.0,78,0.00,,,0.05,,2013-05-21 18:42:00,
2013-05-21 14:52:00,69.0,62.0,29.94,NW,314,0.0,0.0,78,0.00,,,0.05,,2013-05-21 18:52:00,
2013-05-21 15:01:00,71.0,64.0,29.94,North,1,0.0,0.0,78,0.00,,,0.05,,2013-05-21 19:01:00,
2013-05-21 15:11:00,71.0,64.0,29.94,North,1,0.0,0.0,78,0.00,,,0.05,,2013-05-21 19:11:00,
2013-05-21 15:21:00,69.0,60.0,29.94,SE,128,0.0,0.0,74,0.00,,,0.05,,2013-05-21 19:21:00,
2013-05-21 15:32:00,71.0,63.0,29.93,WNW,288,0.0,0.0,75,0.00,,,0.05,,2013-05-21 19:32:00,
2013-05-21 15:42:00,71.0,63.0,29.93,WNW,288,0.0,0.0,75,0.00,,,0.05,,2013-05-21 19:42:00,
2013-05-21 15:52:00,69.0,60.0,29.95,ESE,118,0.0,0.0,73,0.00,,,0.05,,2013-05-21 19:52:00,
2013-05-21 16:03:00,67.0,59.0,29.95,SSW,205,0.0,0.0,75,0.00,,,0.05,,2013-05-21 20:03:00,
2013-05-21 16:11:00,67.0,59.0,29.95,SSW,205,0.0,0.0,75,0.00,,,0.05,,2013-05-21 20:11:00,
2013-05-21 16:22:00,63.0,56.0,29.95,WSW,252,0.0,0.0,77,0.00,,,0.05,,2013-05-21 20:22:00,
2013-05-21 16:32:00,62.0,56.0,29.96,SSW,194,0.0,0.0,80,0.00,,,0.05,,2013-05-21 20:32:00,
2013-05-21 16:42:00,62.0,56.0,29.96,SSW,194,0.0,0.0,80,0.00,,,0.05,,2013-05-21 20:42:00,
2013-05-21 16:52:00,58.0,53.0,29.96,SSW,195,0.0,0.0,83,0.00,,,0.05,,2013-05-21 20:52:00,
2013-05-21 17:02:00,58.0,54.0,29.96,SSE,166,0.0,0.0,85,0.00,,,0.05,,2013-05-21 21:02:00,
2013-05-21 17:11:00,58.0,54.0,29.96,SSE,166,0.0,0.0,85,0.00,,,0.05,,2013-05-21 21:11:00,
2013-05-21 17:22:00,56.0,52.0,29.97,WSW,252,0.0,0.0,85,0.00,,,0.05,,2013-05-21 21:22:00,
2013-05-21 17:33:00,55.0,51.0,29.98,SE,126,0.0,0.0,87,0.00,,,0.05,,2013-05-21 21:33:00,
2013-05-21 17:43:00,55.0,51.0,29.98,SE,126,0.0,0.0,87,0.00,,,0.05,,2013-05-21 21:43:00,
2013-05-21 17:54:00,54.0,51.0,29.97,NE,48,0.0,0.0,89,0.00,,,0.05,,2013-05-21 21:54:00,
2013-05-21 18:02:00,54.0,51.0,29.98,SW,230,0.0,0.0,90,0.00,,,0.05,,2013-05-21 22:02:00,
2013-05-21 18:12:00,54.0,51.0,29.98,SW,230,0.0,0.0,90,0.00,,,0.05,,2013-05-21 22:12:00,
2013-05-21 18:23:00,53.0,50.0,30.00,SW,228,0.0,0.0,90,0.00,,,0.05,,2013-05-21 22:23:00,
2013-05-21 18:33:00,53.0,50.0,30.01,West,259,0.0,0.0,90,0.00,,,0.05,,2013-05-21 22:33:00,
2013-05-21 18:42:00,53.0,50.0,30.01,West,259,0.0,0.0,90,0.00,,,0.05,,2013-05-21 22:42:00,
2013-05-21 18:53:00,53.0,51.0,30.01,SSW,212,0.0,0.0,92,0.00,,,0.05,,2013-05-21 22:53:00,
2013-05-21 19:02:00,53.0,51.0,30.03,West,276,0.0,0.0,92,0.00,,,0.05,,2013-05-21 23:02:00,
2013-05-21 19:12:00,53.0,51.0,30.03,West,276,0.0,0.0,92,0.00,,,0.05,,2013-05-21 23:12:00,
2013-05-21 19:22:00,52.0,50.0,30.03,WSW,242,0.0,0.0,92,0.00,,,0.05,,2013-05-21 23:22:00,
2013-05-21 19:32:00,52.0,50.0,30.04,SSW,210,0.0,0.0,93,0.00,,,0.05,,2013-05-21 23:32:00,
2013-05-21 19:42:00,51.0,49.0,30.02,West,263,0.0,0.0,94,0.00,,,0.05,,2013-05-21 23:42:00,
2013-05-21 19:52:00,51.0,49.0,30.02,West,263,0.0,0.0,94,0.00,,,0.05,,2013-05-21 23:52:00,
2013-05-21 20:01:00,51.0,49.0,30.03,WNW,287,0.0,0.0,94,0.00,,,0.05,,2013-05-22 00:01:00,
2013-05-21 20:11:00,51.0,49.0,30.03,WNW,287,0.0,0.0,94,0.00,,,0.05,,2013-05-22 00:11:00,
2013-05-21 20:21:00,51.0,49.0,30.02,West,268,0.0,0.0,94,0.00,,,0.05,,2013-05-22 00:21:00,
2013-05-21 20:32:00,50.0,48.0,30.02,WSW,250,0.0,0.0,94,0.00,,,0.05,,2013-05-22 00:32:00,
2013-05-21 20:42:00,50.0,48.0,30.02,WSW,250,0.0,0.0,94,0.00,,,0.05,,2013-05-22 00:42:00,
2013-05-21 20:52:00,50.0,49.0,30.03,ESE,120,0.0,0.0,95,0.00,,,0.05,,2013-05-22 00:52:00,
2013-05-21 21:01:00,50.0,49.0,30.02,ESE,121,0.0,0.0,95,0.00,,,0.05,,2013-05-22 01:01:00,
2013-05-21 21:11:00,50.0,49.0,30.02,ESE,121,0.0,0.0,95,0.00,,,0.05,,2013-05-22 01:11:00,
2013-05-21 21:21:00,50.0,49.0,30.03,West,268,0.0,0.0,95,0.00,,,0.05,,2013-05-22 01:21:00,
2013-05-21 21:32:00,50.0,49.0,30.02,West,276,0.0,0.0,95,0.01,,,0.06,,2013-05-22 01:32:00,
2013-05-21 21:42:00,50.0,49.0,30.01,West,271,0.0,0.0,96,0.01,,,0.06,,2013-05-22 01:42:00,
2013-05-21 21:52:00,50.0,49.0,30.01,West,271,0.0,0.0,96,0.01,,,0.06,,2013-05-22 01:52:00,
2013-05-21 22:02:00,50.0,49.0,30.01,West,280,0.0,0.0,96,0.01,,,0.06,,2013-05-22 02:02:00,
2013-05-21 22:11:00,50.0,49.0,30.01,West,280,0.0,0.0,96,0.01,,,0.06,,2013-05-22 02:11:00,
2013-05-21 22:22:00,50.0,49.0,30.03,WSW,258,0.0,0.0,96,0.01,,,0.06,,2013-05-22 02:22:00,
2013-05-21 22:32:00,50.0,49.0,30.03,West,273,0.0,0.0,96,0.00,,,0.06,,2013-05-22 02:32:00,
2013-05-21 22:42:00,50.0,49.0,30.01,WSW,244,0.0,0.0,96,0.00,,,0.06,,2013-05-22 02:42:00,
2013-05-21 22:52:00,50.0,49.0,30.01,WSW,244,0.0,0.0,96,0.00,,,0.06,,2013-05-22 02:52:00,
2013-05-21 23:01:00,50.0,49.0,29.99,SSE,147,0.0,0.0,96,0.00,,,0.06,,2013-05-22 03:01:00,
2013-05-21 23:11:00,50.0,49.0,29.99,SSE,147,0.0,0.0,96,0.00,,,0.06,,2013-05-22 03:11:00,
2013-05-21 23:22:00,50.0,49.0,30.03,NW,312,0.0,0.0,97,0.00,,,0.06,,2013-05-22 03:22:00,
2013-05-21 23:33:00,50.0,49.0,30.06,West,273,0.0,0.0,97,0.00,,,0.06,,2013-05-22 03:33:00,
2013-05-21 23:43:00,49.0,48.0,30.05,East,85,0.0,0.0,97,0.01,,,0.07,,2013-05-22 03:43:00,
2013-05-21 23:53:00,49.0,48.0,30.05,East,85,0.0,0.0,97,0.01,,,0.07,,2013-05-22 03:53:00,